Regional Weather Roundup
Issued by NWS

Home | Current Version | Previous Version | Text Only | Print | Product List | Glossary On
Versions: 1 2 3 4 5 6 7 8 9 10 11 12 13 14 15 16 17 18 19 20 21 22 23 24 25 26 27 28 29 30 31 32 33 34 35 36 37 38 39 40 41 42 43 44 45 46 47 48 49 50
000
ASUS45 KSLC 220810
RWRUT

UTAH REGIONAL WEATHER ROUNDUP
NATIONAL WEATHER SERVICE SALT LAKE CITY UT
200 AM MDT FRI SEP 22 2017

UTZ001>011-023>025-220900-

NORTHERN UTAH

CITY           SKY/WX    TMP DP  RH WIND       PRES   REMARKS
BRIGHAM CITY   CLOUDY    42  37  84 NE3       29.85S
HILL AFB       CLOUDY    39  37  91 CALM      29.83F
LOGAN          CLOUDY    41  38  89 CALM      29.83S
OGDEN          CLOUDY    41  37  86 S5        29.84R
SALT LAKE CITY CLOUDY    42  39  89 E9        29.84R
TOOELE VALLEY  CLOUDY    39  37  93 S10       29.83F WCI  32
WENDOVER       CLOUDY    43  37  79 CALM      29.84F
HEBER CITY     LGT SNOW  37  34  87 CALM      29.83S
WEST JORDAN    CLOUDY    39  39 100 SE3       29.84S

$$

UTZ011>015-024>027-220900-

CENTRAL/NORTHEAST UTAH

CITY           SKY/WX    TMP DP  RH WIND       PRES   REMARKS
PROVO AIRPORT  LGT RAIN  41  39  93 N5        29.85S
MOAB/CANYONLAN PTCLDY    72  29  20 S22G29    29.66R
DELTA          CLOUDY    37  36  93 S7        29.86R WCI  32
PRICE          MOCLDY    59  32  36 S8        29.70R
RICHFIELD      CLOUDY    41  41 100 N7        29.86
ROOSEVELT      MOCLDY    59  36  41 W12G17    29.70R
VERNAL         CLOUDY    62  34  35 W13       29.66R

$$

UTZ013>016-019>022-027-220900-

SOUTHERN UTAH

CITY           SKY/WX    TMP DP  RH WIND       PRES   REMARKS
BRYCE CANYON   PTCLDY    49  37  63 SW14      29.86R
CEDAR CITY     LGT RAIN  39  39 100 SW6       29.86F WCI  35
MILFORD        CLOUDY    39  37  92 N6        29.86S WCI  35
ST GEORGE      CLOUDY    62  38  40 NW9       29.75R
HANKSVILLE     CLOUDY    70  34  26 W24G31    29.69R
KANAB          PTCLDY    59  39  47 SW5       29.82
BLANDING         N/A     63  32  31 SE15      29.93S

$$

REGIONAL REPORTS     COLORADO/ARIZONA

CITY           SKY/WX    TMP DP  RH WIND       PRES   REMARKS
CRAIG, CO      CLEAR     64  18  17 S12       29.77S
GRAND JUNCTION PTCLDY    73  29  19 SE12G22   29.74R
RIFLE, CO      CLEAR     71  20  14 VRB7G21   29.77R
MONTROSE, CO   CLEAR     62  28  27 S7        29.86R
CORTEZ, CO     MOCLDY    65  34  31 S14       29.91S
PAGE, AZ       PTCLDY    70  37  29 S9G18     29.73R
GRAND CANYON   CLOUDY    53  34  48 SW12      29.90R
KINGMAN, AZ    CLEAR     57  40  52 SW7       29.79R
FLAGSTAFF, AZ  CLEAR     52  36  54 SW10      29.92F

$$

REGIONAL REPORTS    NEVADA/IDAHO/WYOMING

CITY           SKY/WX    TMP DP  RH WIND       PRES   REMARKS
LAS VEGAS, NV  CLEAR     64  25  22 CALM      29.76R
ELY, NY        CLOUDY    32  32 100 SE3       29.85S
ELKO, NV       CLOUDY    38  35  89 SW3       29.85S
POCATELLO, ID  LGT RAIN  41  40  96 S9        29.83S
BURLEY, ID     LGT RAIN  43  40  89 SW6       29.83R
FORT BRIDGER,  CLOUDY    38  38 100 W18G26    29.84R WCI  28
EVANSTON, WY   LGT RAIN  33  33 100 S6        29.83R VSB 3/4 WCI  28
ROCK SPRINGS,  CLOUDY    43  36  76 NW7       29.79R
KEMMERER, WY   LGT RAIN  37  36  93 W7        29.82R WCI  32

$$



USA.gov is the U.S. government's official web portal to all federal, state and local government web resources and services.